QPF
0.00 0.01 0.03 0.04 0.03 0.01 0.01 0.02 0.01 0.01 0.00 0.00 0.00 0.00 0.00 0.00 0.00 0.00 0.00 0.00 0.00 0.00 0.00 0.00 0.00 0.00 0.01 0.01 0.01 0.01 0.01 0.01 0.02 0.01 0.01 0.01 0.03 0.06 0.08 0.07 0.04 0.04 0.05
0.00 0.00 0.02 0.03 0.02 0.01 0.01 0.01 0.01 0.01 0.01 0.00 0.00 0.00 0.00 0.00 0.00 0.00 0.00 0.00 0.00 0.00 0.00 0.00 0.00 0.00 0.00 0.01 0.01 0.02 0.01 0.01 0.01 0.01 0.00 0.01 0.02 0.03 0.04 0.04 0.05 0.05 0.05
0.00 0.00 0.01 0.01 0.01 0.01 0.00 0.00 0.01 0.01 0.01 0.00 0.00 0.01 0.00 0.00 0.00 0.00 0.00 0.00 0.00 0.00 0.00 0.00 0.00 0.00 0.01 0.01 0.01 0.01 0.01 0.01 0.01 0.01 0.00 0.00 0.01 0.02 0.02 0.03 0.06 0.06 0.06
0.00 0.00 0.00 0.00 0.00 0.00 0.00 0.00 0.00 0.00 0.00 0.00 0.00 0.00 0.00 0.00 0.00 0.00 0.00 0.00 0.00 0.00 0.00 0.00 0.00 0.01 0.02 0.02 0.01 0.01 0.02 0.03 0.03 0.01 0.00 0.00 0.01 0.02 0.02 0.03 0.04 0.05 0.09
0.00 0.00 0.00 0.00 0.00 0.00 0.00 0.00 0.00 0.00 0.00 0.00 0.00 0.00 0.00 0.00 0.00 0.00 0.00 0.00 0.00 0.00 0.00 0.00 0.00 0.01 0.02 0.02 0.01 0.01 0.02 0.05 0.03 0.01 0.00 0.00 0.01 0.02 0.03 0.03 0.04 0.06 0.07
0.02 0.02 0.02 0.02 0.02 0.01 0.01 0.00 0.00 0.00 0.00 0.00 0.00 0.00 0.00 0.00 0.00 0.00 0.00 0.00 0.00 0.00 0.00 0.00 0.00 0.01 0.02 0.02 0.01 0.01 0.03 0.05 0.02 0.00 0.00 0.00 0.01 0.02 0.03 0.02 0.04 0.05 0.08
0.11 0.06 0.05 0.07 0.06 0.04 0.03 0.02 0.02 0.02 0.01 0.01 0.00 0.00 0.00 0.00 0.00 0.00 0.00 0.00 0.00 0.00 0.00 0.00 0.00 0.01 0.02 0.03 0.02 0.01 0.03 0.06 0.02 0.00 0.00 0.00 0.01 0.02 0.03 0.03 0.03 0.05 0.07
0.37 0.24 0.17 0.18 0.17 0.13 0.10 0.08 0.06 0.05 0.04 0.03 0.02 0.01 0.01 0.01 0.01 0.00 0.00 0.00 0.00 0.00 0.00 0.00 0.00 0.01 0.02 0.03 0.02 0.02 0.02 0.03 0.02 0.01 0.00 0.00 0.02 0.03 0.02 0.04 0.05 0.07 0.06
0.55 0.49 0.38 0.29 0.23 0.20 0.17 0.14 0.14 0.13 0.11 0.08 0.06 0.04 0.03 0.02 0.01 0.00 0.00 0.00 0.00 0.00 0.00 0.00 0.00 0.01 0.02 0.03 0.03 0.03 0.03 0.02 0.02 0.03 0.01 0.00 0.02 0.02 0.01 0.02 0.05 0.06 0.05
0.48 0.42 0.39 0.39 0.35 0.29 0.23 0.22 0.25 0.24 0.22 0.18 0.13 0.09 0.07 0.04 0.02 0.01 0.00 0.00 0.00 0.00 0.00 0.00 0.00 0.00 0.01 0.02 0.03 0.04 0.03 0.02 0.04 0.03 0.01 0.01 0.03 0.01 0.01 0.02 0.03 0.05 0.04
0.38 0.36 0.34 0.34 0.35 0.35 0.30 0.27 0.31 0.35 0.32 0.29 0.23 0.23 0.17 0.07 0.03 0.02 0.02 0.01 0.00 0.00 0.00 0.00 0.00 0.00 0.01 0.02 0.03 0.05 0.03 0.01 0.03 0.03 0.01 0.02 0.04 0.02 0.02 0.01 0.02 0.03 0.03
0.19 0.20 0.19 0.21 0.24 0.27 0.30 0.35 0.40 0.39 0.36 0.30 0.23 0.19 0.16 0.10 0.06 0.04 0.02 0.03 0.04 0.03 0.02 0.01 0.01 0.00 0.00 0.01 0.01 0.02 0.01 0.00 0.01 0.02 0.02 0.03 0.05 0.02 0.01 0.01 0.01 0.02 0.02
0.07 0.07 0.07 0.09 0.10 0.12 0.17 0.25 0.30 0.33 0.40 0.36 0.29 0.22 0.18 0.14 0.08 0.06 0.05 0.04 0.05 0.07 0.04 0.02 0.02 0.01 0.00 0.00 0.00 0.00 0.00 0.00 0.01 0.01 0.02 0.06 0.08 0.04 0.02 0.01 0.01 0.02 0.02
0.03 0.04 0.03 0.03 0.04 0.05 0.07 0.09 0.13 0.19 0.25 0.30 0.28 0.23 0.21 0.17 0.12 0.08 0.08 0.09 0.08 0.08 0.08 0.05 0.02 0.01 0.00 0.00 0.00 0.00 0.00 0.00 0.01 0.01 0.01 0.04 0.07 0.04 0.02 0.01 0.01 0.01 0.01
0.01 0.01 0.02 0.02 0.02 0.02 0.02 0.03 0.04 0.05 0.07 0.12 0.19 0.23 0.23 0.26 0.26 0.20 0.14 0.15 0.12 0.12 0.13 0.13 0.08 0.03 0.00 0.00 0.00 0.00 0.00 0.00 0.01 0.01 0.02 0.03 0.04 0.04 0.03 0.01 0.01 0.00 0.01
0.00 0.01 0.01 0.01 0.01 0.01 0.01 0.01 0.01 0.02 0.01 0.03 0.07 0.14 0.19 0.19 0.21 0.22 0.16 0.13 0.14 0.19 0.23 0.24 0.15 0.06 0.02 0.01 0.00 0.00 0.00 0.00 0.00 0.00 0.01 0.01 0.02 0.02 0.02 0.02 0.01 0.00 0.00
0.00 0.00 0.00 0.00 0.00 0.00 0.00 0.00 0.01 0.01 0.01 0.01 0.02 0.03 0.08 0.11 0.11 0.13 0.11 0.09 0.11 0.18 0.23 0.25 0.18 0.09 0.05 0.02 0.01 0.01 0.01 0.00 0.00 0.00 0.01 0.00 0.00 0.01 0.01 0.01 0.01 0.01 0.00
0.00 0.00 0.00 0.00 0.00 0.00 0.00 0.00 0.00 0.00 0.00 0.00 0.00 0.00 0.01 0.04 0.06 0.08 0.09 0.08 0.09 0.14 0.21 0.25 0.23 0.17 0.12 0.07 0.03 0.03 0.03 0.02 0.01 0.01 0.01 0.00 0.00 0.00 0.01 0.01 0.01 0.01 0.00
0.00 0.00 0.00 0.00 0.00 0.00 0.00 0.00 0.00 0.00 0.00 0.00 0.00 0.00 0.00 0.01 0.03 0.04 0.07 0.07 0.08 0.11 0.14 0.20 0.22 0.20 0.17 0.12 0.08 0.05 0.04 0.02 0.02 0.02 0.01 0.00 0.00 0.00 0.00 0.00 0.00 0.00 0.00
0.00 0.00 0.00 0.00 0.00 0.00 0.00 0.00 0.00 0.00 0.00 0.00 0.00 0.00 0.00 0.00 0.01 0.02 0.05 0.08 0.07 0.08 0.10 0.17 0.24 0.26 0.22 0.18 0.14 0.09 0.05 0.03 0.02 0.02 0.02 0.02 0.01 0.00 0.00 0.00 0.00 0.00 0.00
0.00 0.00 0.00 0.00 0.00 0.00 0.00 0.00 0.00 0.00 0.00 0.00 0.00 0.00 0.00 0.00 0.00 0.01 0.02 0.04 0.06 0.06 0.07 0.13 0.21 0.27 0.27 0.24 0.21 0.15 0.10 0.06 0.05 0.06 0.04 0.04 0.02 0.01 0.00 0.00 0.00 0.00 0.00
0.00 0.00 0.00 0.00 0.00 0.00 0.00 0.00 0.00 0.00 0.00 0.00 0.00 0.00 0.00 0.00 0.00 0.01 0.01 0.01 0.03 0.05 0.05 0.07 0.12 0.20 0.27 0.28 0.25 0.24 0.20 0.13 0.07 0.06 0.05 0.04 0.03 0.02 0.00 0.00 0.00 0.00 0.00
0.00 0.00 0.00 0.00 0.00 0.00 0.00 0.00 0.00 0.00 0.00 0.00 0.00 0.00 0.00 0.00 0.00 0.00 0.01 0.01 0.02 0.02 0.03 0.05 0.07 0.13 0.22 0.29 0.27 0.26 0.22 0.18 0.13 0.08 0.04 0.04 0.04 0.03 0.02 0.01 0.00 0.00 0.00
0.00 0.00 0.00 0.00 0.00 0.00 0.00 0.00 0.00 0.00 0.00 0.00 0.00 0.00 0.00 0.00 0.00 0.00 0.00 0.01 0.01 0.02 0.02 0.02 0.04 0.08 0.14 0.22 0.26 0.22 0.18 0.15 0.17 0.15 0.10 0.06 0.06 0.04 0.03 0.03 0.01 0.01 0.01
0.00 0.00 0.00 0.00 0.00 0.00 0.00 0.00 0.00 0.00 0.00 0.00 0.00 0.00 0.01 0.01 0.01 0.01 0.01 0.01 0.02 0.02 0.02 0.02 0.04 0.06 0.08 0.12 0.20 0.25 0.22 0.18 0.14 0.14 0.14 0.11 0.07 0.05 0.04 0.04 0.04 0.03 0.02
0.00 0.00 0.00 0.00 0.00 0.00 0.00 0.00 0.00 0.00 0.00 0.00 0.01 0.01 0.01 0.01 0.02 0.02 0.02 0.02 0.02 0.02 0.03 0.03 0.03 0.05 0.07 0.10 0.14 0.20 0.22 0.22 0.18 0.14 0.11 0.12 0.12 0.09 0.08 0.06 0.05 0.04 0.04
MSLP
1014.86 1014.31 1013.98 1013.91 1014.05 1014.35 1014.70 1015.02 1015.24 1015.34 1015.35 1015.29 1015.25 1015.25 1015.33 1015.49 1015.68 1015.87 1016.02 1016.08 1016.06 1015.98 1015.86 1015.76 1015.70 1015.69 1015.74 1015.83 1015.92 1016.00 1016.03 1016.03 1016.00 1015.96 1015.92 1015.90 1015.91 1015.94 1016.00 1016.06 1016.10 1016.14 1016.16
1014.69 1014.19 1013.90 1013.86 1014.04 1014.37 1014.75 1015.09 1015.33 1015.45 1015.47 1015.43 1015.40 1015.42 1015.51 1015.66 1015.85 1016.03 1016.17 1016.22 1016.21 1016.14 1016.04 1015.96 1015.91 1015.91 1015.96 1016.02 1016.08 1016.11 1016.12 1016.09 1016.05 1016.02 1016.00 1016.01 1016.04 1016.10 1016.16 1016.22 1016.27 1016.29 1016.30
1014.52 1014.08 1013.85 1013.87 1014.09 1014.44 1014.83 1015.19 1015.43 1015.56 1015.59 1015.56 1015.54 1015.56 1015.65 1015.80 1015.97 1016.12 1016.23 1016.27 1016.24 1016.17 1016.09 1016.03 1016.00 1016.02 1016.06 1016.11 1016.16 1016.17 1016.16 1016.12 1016.08 1016.06 1016.07 1016.11 1016.18 1016.26 1016.33 1016.39 1016.43 1016.45 1016.46
1014.40 1014.04 1013.87 1013.94 1014.19 1014.55 1014.95 1015.29 1015.52 1015.63 1015.65 1015.63 1015.61 1015.63 1015.71 1015.84 1015.99 1016.11 1016.18 1016.20 1016.16 1016.09 1016.02 1015.98 1015.98 1016.02 1016.08 1016.14 1016.18 1016.19 1016.18 1016.15 1016.13 1016.13 1016.17 1016.24 1016.33 1016.42 1016.50 1016.56 1016.59 1016.61 1016.61
1014.37 1014.08 1013.97 1014.08 1014.34 1014.70 1015.06 1015.36 1015.55 1015.63 1015.62 1015.59 1015.56 1015.59 1015.67 1015.79 1015.91 1016.01 1016.05 1016.04 1015.99 1015.93 1015.88 1015.87 1015.90 1015.98 1016.06 1016.14 1016.20 1016.22 1016.22 1016.21 1016.21 1016.24 1016.30 1016.40 1016.50 1016.60 1016.68 1016.73 1016.75 1016.75 1016.75
1014.47 1014.23 1014.17 1014.29 1014.55 1014.86 1015.16 1015.38 1015.50 1015.52 1015.48 1015.43 1015.41 1015.44 1015.53 1015.64 1015.76 1015.85 1015.88 1015.86 1015.81 1015.75 1015.73 1015.75 1015.83 1015.94 1016.06 1016.17 1016.25 1016.29 1016.30 1016.31 1016.33 1016.38 1016.46 1016.57 1016.68 1016.78 1016.84 1016.87 1016.88 1016.87 1016.87
1014.70 1014.50 1014.46 1014.57 1014.79 1015.03 1015.23 1015.36 1015.38 1015.34 1015.25 1015.18 1015.17 1015.22 1015.33 1015.46 1015.59 1015.68 1015.71 1015.70 1015.66 1015.63 1015.63 1015.70 1015.81 1015.96 1016.11 1016.25 1016.34 1016.40 1016.42 1016.44 1016.48 1016.54 1016.63 1016.74 1016.85 1016.93 1016.98 1016.99 1016.97 1016.95 1016.94
1015.07 1014.88 1014.83 1014.91 1015.06 1015.20 1015.29 1015.30 1015.22 1015.10 1014.98 1014.90 1014.90 1014.98 1015.13 1015.29 1015.45 1015.55 1015.60 1015.59 1015.57 1015.57 1015.61 1015.71 1015.86 1016.04 1016.22 1016.38 1016.48 1016.54 1016.57 1016.59 1016.63 1016.69 1016.78 1016.89 1016.99 1017.06 1017.08 1017.07 1017.03 1017.00 1016.98
1015.56 1015.35 1015.28 1015.30 1015.35 1015.38 1015.35 1015.24 1015.07 1014.88 1014.73 1014.66 1014.68 1014.80 1014.98 1015.18 1015.36 1015.48 1015.53 1015.54 1015.54 1015.56 1015.63 1015.76 1015.94 1016.15 1016.35 1016.51 1016.62 1016.68 1016.71 1016.72 1016.75 1016.81 1016.90 1016.99 1017.08 1017.14 1017.15 1017.13 1017.07 1017.02 1017.00
1016.10 1015.88 1015.77 1015.71 1015.67 1015.58 1015.43 1015.22 1014.97 1014.73 1014.56 1014.49 1014.54 1014.69 1014.90 1015.12 1015.31 1015.44 1015.50 1015.51 1015.51 1015.55 1015.64 1015.79 1016.00 1016.23 1016.44 1016.61 1016.72 1016.78 1016.79 1016.80 1016.82 1016.87 1016.95 1017.04 1017.13 1017.18 1017.19 1017.16 1017.11 1017.05 1017.03
1016.67 1016.43 1016.27 1016.14 1016.00 1015.81 1015.56 1015.25 1014.94 1014.67 1014.49 1014.43 1014.50 1014.67 1014.89 1015.11 1015.29 1015.39 1015.43 1015.43 1015.43 1015.47 1015.58 1015.75 1015.98 1016.23 1016.46 1016.63 1016.74 1016.79 1016.80 1016.79 1016.81 1016.85 1016.93 1017.03 1017.12 1017.19 1017.21 1017.19 1017.15 1017.10 1017.08
1017.22 1016.96 1016.76 1016.56 1016.33 1016.05 1015.71 1015.34 1014.99 1014.70 1014.51 1014.46 1014.54 1014.70 1014.90 1015.09 1015.23 1015.29 1015.29 1015.26 1015.25 1015.29 1015.40 1015.59 1015.84 1016.11 1016.35 1016.54 1016.66 1016.70 1016.71 1016.70 1016.71 1016.76 1016.84 1016.95 1017.06 1017.15 1017.21 1017.22 1017.20 1017.17 1017.16
1017.70 1017.44 1017.19 1016.94 1016.64 1016.29 1015.89 1015.47 1015.08 1014.78 1014.60 1014.54 1014.60 1014.74 1014.90 1015.03 1015.10 1015.11 1015.06 1014.99 1014.95 1014.98 1015.11 1015.32 1015.59 1015.88 1016.14 1016.35 1016.47 1016.53 1016.54 1016.53 1016.54 1016.59 1016.68 1016.81 1016.95 1017.08 1017.17 1017.23 1017.25 1017.26 1017.27
1018.11 1017.83 1017.56 1017.26 1016.90 1016.49 1016.05 1015.60 1015.20 1014.89 1014.70 1014.63 1014.66 1014.75 1014.84 1014.90 1014.90 1014.84 1014.73 1014.63 1014.57 1014.60 1014.73 1014.96 1015.26 1015.57 1015.86 1016.08 1016.22 1016.29 1016.31 1016.30 1016.32 1016.37 1016.47 1016.61 1016.77 1016.94 1017.08 1017.20 1017.28 1017.34 1017.38
1018.42 1018.15 1017.85 1017.50 1017.10 1016.66 1016.18 1015.72 1015.31 1014.99 1014.78 1014.69 1014.67 1014.70 1014.73 1014.71 1014.64 1014.51 1014.36 1014.23 1014.17 1014.20 1014.34 1014.59 1014.91 1015.24 1015.55 1015.79 1015.96 1016.03 1016.06 1016.06 1016.06 1016.11 1016.21 1016.35 1016.54 1016.73 1016.93 1017.10 1017.24 1017.36 1017.47
1018.66 1018.37 1018.05 1017.67 1017.24 1016.77 1016.28 1015.81 1015.39 1015.07 1014.84 1014.71 1014.65 1014.61 1014.57 1014.48 1014.35 1014.18 1014.01 1013.87 1013.81 1013.86 1014.02 1014.28 1014.61 1014.96 1015.28 1015.53 1015.70 1015.79 1015.82 1015.81 1015.81 1015.84 1015.92 1016.06 1016.24 1016.46 1016.69 1016.92 1017.13 1017.31 1017.48
1018.82 1018.52 1018.18 1017.77 1017.32 1016.84 1016.34 1015.88 1015.46 1015.13 1014.89 1014.72 1014.60 1014.50 1014.40 1014.26 1014.09 1013.91 1013.73 1013.61 1013.57 1013.63 1013.81 1014.08 1014.41 1014.75 1015.07 1015.32 1015.49 1015.58 1015.61 1015.59 1015.57 1015.58 1015.63 1015.74 1015.91 1016.13 1016.38 1016.65 1016.92 1017.17 1017.40
1018.94 1018.61 1018.25 1017.83 1017.37 1016.89 1016.41 1015.95 1015.55 1015.21 1014.94 1014.74 1014.57 1014.42 1014.26 1014.09 1013.90 1013.72 1013.56 1013.46 1013.44 1013.53 1013.71 1013.97 1014.29 1014.62 1014.92 1015.16 1015.33 1015.42 1015.44 1015.41 1015.38 1015.36 1015.37 1015.45 1015.58 1015.78 1016.04 1016.33 1016.64 1016.95 1017.24
1019.01 1018.66 1018.28 1017.86 1017.41 1016.94 1016.49 1016.06 1015.67 1015.33 1015.05 1014.80 1014.59 1014.39 1014.19 1013.99 1013.79 1013.62 1013.48 1013.41 1013.41 1013.50 1013.68 1013.93 1014.21 1014.51 1014.79 1015.02 1015.18 1015.27 1015.30 1015.28 1015.24 1015.19 1015.18 1015.21 1015.30 1015.46 1015.70 1015.98 1016.32 1016.66 1017.01
1019.05 1018.68 1018.29 1017.87 1017.44 1017.01 1016.59 1016.20 1015.84 1015.51 1015.21 1014.93 1014.67 1014.42 1014.18 1013.95 1013.74 1013.57 1013.45 1013.39 1013.41 1013.50 1013.66 1013.87 1014.11 1014.37 1014.62 1014.84 1015.01 1015.12 1015.17 1015.18 1015.14 1015.10 1015.06 1015.05 1015.10 1015.21 1015.41 1015.67 1016.00 1016.36 1016.73
1019.06 1018.68 1018.29 1017.88 1017.48 1017.09 1016.73 1016.38 1016.05 1015.74 1015.43 1015.11 1014.80 1014.50 1014.21 1013.94 1013.71 1013.53 1013.41 1013.36 1013.36 1013.43 1013.56 1013.72 1013.92 1014.14 1014.37 1014.58 1014.77 1014.92 1015.02 1015.07 1015.08 1015.06 1015.01 1014.98 1014.99 1015.06 1015.20 1015.42 1015.72 1016.07 1016.45
1019.07 1018.67 1018.27 1017.88 1017.52 1017.18 1016.87 1016.58 1016.30 1016.00 1015.68 1015.34 1014.98 1014.61 1014.26 1013.95 1013.68 1013.47 1013.32 1013.24 1013.22 1013.25 1013.33 1013.44 1013.59 1013.77 1013.98 1014.20 1014.42 1014.63 1014.81 1014.94 1015.01 1015.04 1015.02 1014.99 1014.97 1014.99 1015.08 1015.25 1015.50 1015.82 1016.17
1019.06 1018.66 1018.26 1017.88 1017.55 1017.27 1017.02 1016.79 1016.54 1016.27 1015.95 1015.58 1015.17 1014.74 1014.32 1013.94 1013.61 1013.35 1013.16 1013.04 1012.97 1012.94 1012.96 1013.01 1013.11 1013.25 1013.44 1013.68 1013.94 1014.22 1014.49 1014.72 1014.88 1014.98 1015.02 1015.01 1014.99 1014.98 1015.03 1015.14 1015.33 1015.59 1015.90
1019.05 1018.64 1018.24 1017.88 1017.58 1017.34 1017.14 1016.96 1016.76 1016.52 1016.20 1015.80 1015.35 1014.87 1014.39 1013.93 1013.54 1013.21 1012.96 1012.77 1012.63 1012.54 1012.48 1012.47 1012.51 1012.61 1012.78 1013.03 1013.33 1013.68 1014.03 1014.36 1014.63 1014.82 1014.93 1014.97 1014.97 1014.96 1014.97 1015.04 1015.17 1015.38 1015.64
1019.05 1018.63 1018.22 1017.86 1017.58 1017.38 1017.23 1017.10 1016.94 1016.72 1016.42 1016.02 1015.54 1015.01 1014.46 1013.95 1013.48 1013.09 1012.77 1012.51 1012.30 1012.13 1011.99 1011.90 1011.86 1011.91 1012.05 1012.28 1012.60 1012.99 1013.42 1013.83 1014.20 1014.48 1014.68 1014.79 1014.84 1014.85 1014.86 1014.89 1014.99 1015.14 1015.35
1019.05 1018.62 1018.19 1017.83 1017.56 1017.38 1017.27 1017.18 1017.07 1016.89 1016.60 1016.21 1015.72 1015.16 1014.58 1014.02 1013.50 1013.04 1012.65 1012.32 1012.03 1011.78 1011.56 1011.38 1011.26 1011.22 1011.30 1011.49 1011.79 1012.19 1012.65 1013.12 1013.56 1013.93 1014.22 1014.41 1014.52 1014.58 1014.61 1014.66 1014.73 1014.86 1015.03
Thickness
5784 5785 5784 5782 5779 5777 5775 5772 5770 5769 5768 5767 5766 5765 5764 5763 5763 5763 5763 5763 5764 5764 5765 5766 5766 5767 5768 5769 5770 5771 5771 5772 5772 5772 5773 5773 5773 5772 5772 5771 5770 5770 5769
5787 5785 5783 5781 5779 5777 5775 5773 5771 5769 5768 5767 5766 5765 5764 5764 5763 5763 5762 5762 5763 5763 5763 5763 5764 5765 5765 5766 5767 5767 5768 5768 5768 5769 5769 5770 5770 5770 5769 5768 5768 5767 5766
5786 5784 5782 5780 5778 5776 5774 5772 5771 5769 5768 5767 5766 5765 5764 5764 5763 5763 5762 5762 5762 5762 5762 5762 5762 5762 5763 5763 5764 5764 5764 5764 5765 5765 5765 5766 5766 5767 5766 5766 5766 5765 5764
5784 5782 5781 5779 5777 5775 5773 5772 5770 5769 5768 5767 5766 5765 5764 5764 5763 5763 5762 5762 5761 5761 5761 5760 5761 5761 5761 5761 5761 5761 5761 5761 5762 5762 5762 5763 5763 5764 5764 5764 5764 5763 5762
5781 5779 5777 5776 5775 5773 5771 5770 5769 5768 5767 5766 5766 5765 5764 5764 5763 5763 5762 5762 5761 5761 5760 5760 5759 5759 5759 5759 5759 5758 5759 5759 5759 5759 5759 5760 5760 5761 5762 5761 5761 5761 5760
5776 5775 5774 5773 5772 5771 5769 5768 5768 5767 5766 5766 5765 5764 5764 5763 5763 5763 5762 5762 5761 5761 5760 5760 5759 5759 5758 5758 5757 5757 5757 5757 5757 5757 5757 5758 5758 5759 5760 5760 5760 5760 5759
5772 5771 5769 5769 5768 5768 5767 5766 5766 5765 5765 5765 5764 5764 5764 5763 5763 5763 5762 5762 5761 5761 5760 5760 5759 5758 5758 5757 5756 5756 5756 5757 5756 5756 5756 5756 5757 5758 5759 5759 5759 5758 5758
5766 5765 5764 5764 5764 5764 5764 5764 5764 5763 5763 5763 5763 5763 5763 5763 5762 5762 5762 5762 5761 5761 5760 5760 5759 5759 5758 5757 5756 5756 5756 5756 5755 5755 5755 5756 5756 5757 5758 5758 5758 5757 5757
5759 5758 5758 5757 5758 5759 5760 5761 5761 5761 5761 5761 5761 5761 5761 5761 5761 5761 5761 5761 5761 5760 5760 5760 5759 5759 5758 5757 5756 5756 5756 5756 5755 5755 5755 5755 5756 5757 5757 5757 5757 5757 5756
5753 5753 5752 5752 5753 5754 5755 5757 5758 5758 5757 5758 5758 5758 5759 5760 5760 5760 5760 5760 5760 5760 5760 5759 5759 5759 5758 5758 5757 5756 5756 5756 5756 5756 5756 5756 5756 5756 5756 5756 5756 5756 5756
5745 5746 5747 5747 5748 5749 5751 5752 5753 5753 5754 5754 5755 5756 5756 5757 5758 5758 5758 5759 5759 5759 5759 5759 5758 5758 5758 5758 5757 5757 5757 5756 5756 5756 5756 5756 5756 5756 5756 5755 5756 5756 5756
5734 5737 5739 5740 5742 5743 5745 5747 5748 5749 5750 5751 5751 5753 5753 5754 5755 5755 5756 5757 5757 5757 5757 5758 5757 5757 5757 5757 5756 5756 5756 5756 5756 5756 5756 5757 5757 5756 5756 5755 5755 5755 5755
5725 5727 5730 5731 5733 5735 5737 5740 5742 5743 5745 5746 5747 5748 5749 5750 5752 5753 5753 5754 5755 5756 5756 5756 5756 5756 5756 5755 5755 5755 5755 5756 5756 5756 5757 5757 5757 5757 5756 5755 5755 5755 5755
5715 5716 5720 5722 5724 5727 5729 5731 5734 5736 5738 5740 5742 5744 5745 5746 5748 5749 5750 5751 5752 5752 5753 5753 5753 5753 5753 5753 5753 5754 5754 5755 5756 5756 5757 5757 5758 5757 5757 5756 5755 5755 5754
5703 5706 5709 5712 5714 5717 5719 5722 5725 5728 5730 5733 5735 5737 5739 5741 5743 5744 5746 5747 5748 5749 5750 5750 5750 5750 5751 5751 5751 5752 5753 5754 5755 5756 5757 5757 5758 5757 5757 5756 5755 5754 5754
5693 5695 5698 5701 5704 5706 5709 5712 5715 5718 5722 5725 5728 5731 5733 5735 5738 5740 5741 5743 5744 5746 5747 5747 5747 5747 5748 5749 5749 5750 5751 5753 5754 5755 5756 5757 5757 5757 5756 5756 5755 5754 5754
5684 5686 5688 5692 5693 5695 5698 5701 5705 5709 5712 5716 5719 5723 5726 5729 5732 5734 5736 5738 5740 5741 5743 5744 5744 5744 5745 5745 5746 5748 5750 5751 5753 5754 5755 5756 5756 5756 5755 5755 5754 5754 5753
5677 5677 5679 5682 5683 5686 5688 5691 5695 5699 5702 5706 5710 5714 5717 5721 5724 5727 5730 5732 5734 5736 5738 5739 5739 5739 5740 5741 5742 5745 5747 5749 5751 5753 5754 5754 5755 5755 5754 5754 5753 5753 5752
5670 5670 5671 5673 5675 5677 5680 5683 5686 5689 5693 5697 5701 5704 5708 5712 5715 5719 5722 5724 5727 5729 5732 5733 5735 5735 5735 5736 5738 5741 5743 5745 5748 5750 5751 5752 5753 5753 5753 5752 5751 5751 5751
5665 5664 5664 5666 5667 5669 5672 5675 5678 5681 5684 5688 5692 5695 5699 5703 5707 5710 5714 5716 5719 5721 5724 5726 5728 5729 5731 5731 5733 5736 5738 5741 5744 5746 5748 5749 5750 5750 5750 5749 5749 5749 5749
5660 5659 5659 5659 5660 5662 5663 5665 5668 5671 5675 5679 5682 5686 5690 5694 5698 5702 5705 5708 5710 5713 5716 5719 5720 5722 5724 5725 5724 5725 5730 5734 5737 5741 5743 5745 5746 5747 5747 5747 5746 5746 5746
5655 5655 5655 5654 5655 5656 5656 5658 5660 5663 5666 5670 5673 5677 5681 5685 5689 5693 5696 5699 5702 5704 5707 5710 5713 5714 5717 5719 5718 5715 5716 5721 5729 5735 5737 5739 5741 5742 5743 5743 5744 5744 5744
5654 5653 5652 5651 5651 5652 5652 5653 5656 5658 5660 5662 5665 5669 5673 5676 5680 5684 5688 5691 5694 5697 5699 5703 5706 5707 5709 5712 5715 5713 5710 5711 5719 5725 5730 5734 5735 5737 5739 5740 5741 5741 5741
5654 5653 5651 5650 5649 5649 5649 5648 5648 5649 5650 5653 5656 5660 5665 5669 5672 5675 5679 5683 5686 5690 5693 5696 5700 5702 5703 5704 5707 5712 5714 5715 5712 5714 5720 5726 5729 5731 5734 5736 5738 5738 5738
5655 5652 5651 5649 5648 5647 5646 5645 5644 5645 5646 5648 5651 5654 5658 5661 5664 5667 5671 5674 5678 5682 5686 5689 5693 5696 5698 5700 5702 5705 5706 5708 5710 5710 5711 5716 5720 5726 5729 5732 5734 5735 5735
5655 5653 5651 5648 5647 5646 5644 5643 5642 5642 5643 5644 5646 5648 5651 5654 5657 5659 5663 5666 5669 5674 5678 5683 5687 5690 5693 5696 5699 5701 5704 5704 5706 5707 5707 5710 5713 5718 5723 5726 5729 5731 5732